Weather History for Palermo, Italy

Change the Weather History Date:

Friday, February 22, 2013

  Actual Average Record
Temperature  
Mean Temperature 54 °F -  
Max Temperature 60 °F 60 °F 71 °F (2004)
Min Temperature 48 °F 51 °F 41 °F (2009)
Degree Days  
Heating Degree Days 11    
Growing Degree Days 4 (Base 50)    
Moisture  
Dew Point 47 °F    
Average Humidity 74    
Maximum Humidity 82    
Minimum Humidity 63    
Precipitation  
Precipitation 0.00 in 0.08 in - ()
Sea Level Pressure  
Sea Level Pressure 29.67 in    
Wind  
Wind Speed 14 mph ()    
Max Wind Speed 31 mph    
Max Gust Speed 39 mph    
Visibility 6.1 miles    
Events Rain    
Averages and records for this station are not official NWS values.
T = Trace of Precipitation, MM = Missing Value Source: Averaged Metar Reports

Daily Weather History Graph

Daily Weather History Graph

Search for Another Location

Airport:

Trip Planner

Search our weather history database for the weather conditions in past years. The results will help you decide how hot, cold, wet, or windy it might be!

Date:

Astronomy

Feb. 22, 2013 Rise Set
Actual Time 6:49 AM CET 5:53 PM CET
Civil Twilight 6:22 AM CET 6:20 PM CET
Nautical Twilight 5:51 AM CET 6:51 PM CET
Astronomical Twilight 5:21 AM CET 7:21 PM CET
Moon 2:50 PM CET (2/22) 4:20 AM CET (2/22)
Length of Visible Light 11h 58m
Length of Day
11h 04m
Waxing Gibbous, 88% of the Moon is Illuminated
Feb 22
Waxing Gibbous
Feb 25
Full
Mar 4
Last Quarter
Mar 11
New
Mar 19
First Quarter

Hourly Weather History & Observations

Time (CET) Temp. Dew Point Humidity Pressure Visibility Wind Dir Wind Speed Gust Speed Precip Events Conditions
12:20 AM 55.4 °F 46.4 °F 72% 29.74 in 6.2 mi West 9.2 mph - N/A   Scattered Clouds
12:50 AM 55.4 °F 44.6 °F 67% 29.74 in 6.2 mi West 9.2 mph - N/A   Partly Cloudy
1:20 AM 53.6 °F 44.6 °F 72% 29.74 in 6.2 mi West 6.9 mph - N/A   Partly Cloudy
1:50 AM 50.0 °F 42.8 °F 76% 29.74 in 6.2 mi South 6.9 mph - N/A   Scattered Clouds
2:50 AM 50.0 °F 44.6 °F 82% 29.74 in 6.2 mi SSE 9.2 mph - N/A   Scattered Clouds
3:20 AM 50.0 °F 44.6 °F 82% 29.71 in 6.2 mi SSE 9.2 mph - N/A   Scattered Clouds
3:50 AM 48.2 °F 42.8 °F 82% 29.71 in 6.2 mi South 9.2 mph - N/A   Scattered Clouds
4:20 AM 48.2 °F 42.8 °F 82% 29.71 in 6.2 mi South 9.2 mph - N/A   Partly Cloudy
4:50 AM 50.0 °F 44.6 °F 82% 29.71 in 6.2 mi South 12.7 mph - N/A   Partly Cloudy
5:20 AM 50.0 °F 42.8 °F 76% 29.71 in 6.2 mi South 11.5 mph - N/A   Partly Cloudy
5:50 AM 51.8 °F 42.8 °F 71% 29.71 in 6.2 mi South 12.7 mph - N/A   Partly Cloudy
6:20 AM 53.6 °F 44.6 °F 72% 29.71 in 6.2 mi South 16.1 mph - N/A   Partly Cloudy
6:50 AM 53.6 °F 44.6 °F 72% 29.68 in 6.2 mi South 18.4 mph - N/A   Mostly Cloudy
7:20 AM 53.6 °F 44.6 °F 72% 29.71 in 6.2 mi South 18.4 mph - N/A   Scattered Clouds
7:50 AM 55.4 °F 46.4 °F 72% 29.71 in 6.2 mi South 17.3 mph - N/A   Scattered Clouds
8:20 AM 53.6 °F 46.4 °F 77% 29.71 in 6.2 mi South 18.4 mph - N/A Rain Rain
8:50 AM 53.6 °F 48.2 °F 82% 29.71 in 6.2 mi South 18.4 mph - N/A Rain Light Rain
9:20 AM 57.2 °F 50.0 °F 77% 29.71 in 6.2 mi South 18.4 mph - N/A   Mostly Cloudy
9:50 AM 55.4 °F 48.2 °F 77% 29.71 in 6.2 mi South 18.4 mph - N/A   Scattered Clouds
10:20 AM 55.4 °F 48.2 °F 77% 29.71 in 6.2 mi South 16.1 mph - N/A   Partly Cloudy
10:50 AM 57.2 °F 48.2 °F 72% 29.71 in 6.2 mi South 15.0 mph - N/A   Scattered Clouds
11:20 AM 57.2 °F 50.0 °F 77% 29.68 in 6.2 mi SSW 11.5 mph - N/A   Scattered Clouds
11:50 AM 59.0 °F 50.0 °F 72% 29.68 in 6.2 mi SW 18.4 mph - N/A   Scattered Clouds
12:20 PM 60.8 °F 51.8 °F 72% 29.68 in 6.2 mi SW 18.4 mph - N/A   Scattered Clouds
12:50 PM 59.0 °F 50.0 °F 72% 29.65 in 6.2 mi SW 24.2 mph - N/A   Scattered Clouds
1:20 PM 59.0 °F 50.0 °F 72% 29.65 in 6.2 mi SW 21.9 mph - N/A   Mostly Cloudy
1:50 PM 59.0 °F 50.0 °F 72% 29.65 in 6.2 mi SW 21.9 mph - N/A   Mostly Cloudy
2:20 PM 59.0 °F 48.2 °F 67% 29.62 in 6.2 mi SSW 20.7 mph - N/A   Mostly Cloudy
2:50 PM 59.0 °F 46.4 °F 63% 29.62 in 6.2 mi SSW 19.6 mph - N/A   Scattered Clouds
3:20 PM 59.0 °F 46.4 °F 63% 29.62 in 6.2 mi South 19.6 mph - N/A   Scattered Clouds
3:50 PM 59.0 °F 46.4 °F 63% 29.62 in 6.2 mi SSW 21.9 mph - N/A   Scattered Clouds
4:20 PM 57.2 °F 48.2 °F 72% 29.59 in 6.2 mi South 19.6 mph - N/A   Scattered Clouds
4:50 PM 57.2 °F 48.2 °F 72% 29.62 in 6.2 mi South 21.9 mph - N/A Rain Light Rain
5:20 PM 55.4 °F 48.2 °F 77% 29.62 in 6.2 mi South 19.6 mph - N/A Rain Light Rain
5:50 PM 57.2 °F 48.2 °F 72% 29.62 in 6.2 mi South 23.0 mph 34.5 mph N/A Rain Light Rain
6:20 PM 55.4 °F 48.2 °F 77% 29.62 in 6.2 mi SSW 27.6 mph - N/A Rain Light Rain
6:50 PM 55.4 °F 48.2 °F 77% 29.65 in 6.2 mi SSW 27.6 mph - N/A   Mostly Cloudy
7:20 PM 55.4 °F 48.2 °F 77% 29.62 in 6.2 mi SSW 31.1 mph - N/A Rain Light Rain
7:50 PM 55.4 °F 46.4 °F 72% 29.62 in 6.2 mi SSW 23.0 mph - N/A   Partly Cloudy
8:20 PM 55.4 °F 46.4 °F 72% 29.62 in 6.2 mi SSW 26.5 mph - N/A Rain Light Rain
8:50 PM 55.4 °F 48.2 °F 77% 29.65 in 3.7 mi South 27.6 mph 39.1 mph N/A Rain Rain
9:20 PM 55.4 °F 48.2 °F 77% 29.65 in 6.2 mi SSW 25.3 mph - N/A   Mostly Cloudy
9:50 PM 55.4 °F 50.0 °F 82% 29.65 in 6.2 mi SSW 25.3 mph 38.0 mph N/A   Mostly Cloudy
10:20 PM 57.2 °F 50.0 °F 77% 29.65 in 6.2 mi SW 25.3 mph - N/A   Mostly Cloudy
10:50 PM 57.2 °F 50.0 °F 77% 29.65 in 6.2 mi SW 26.5 mph - N/A   Scattered Clouds
11:20 PM 59.0 °F 50.0 °F 72% 29.62 in 6.2 mi SW 29.9 mph - N/A   Scattered Clouds
11:50 PM 57.2 °F 50.0 °F 77% 29.65 in 6.2 mi SW 25.3 mph - N/A   Scattered Clouds